Date,TemperatureHighF,TemperatureAvgF,TemperatureLowF,DewpointHighF,DewpointAvgF,DewpointLowF,HumidityHigh,HumidityAvg,HumidityLow,PressureMaxIn,PressureMinIn,WindSpeedMaxMPH,WindSpeedAvgMPH,GustSpeedMaxMPH,PrecipitationSumIn
2013-10-1,74.2,59.6,49.6,61.8,54.9,49.6,100,86,52,30.16,30.05,5,1,7,0.01
2013-10-2,78.6,60.1,48.3,64.8,55.6,48.3,100,87,52,30.20,30.08,3,0,5,0.00
2013-10-3,76.1,62.2,53.2,65.0,58.3,52.7,100,89,57,30.14,30.05,2,0,5,0.01
2013-10-4,79.4,63.6,53.3,66.4,58.9,53.0,100,87,56,30.18,30.07,3,0,7,0.00
2013-10-5,84.1,65.2,51.9,65.4,59.1,51.9,100,84,48,30.16,30.00,1,0,1,0.01
2013-10-6,81.2,66.5,53.2,65.1,58.7,53.2,100,79,48,30.02,29.82,4,1,10,0.01
2013-10-7,68.9,58.8,45.4,62.1,53.0,43.2,99,83,54,30.09,29.74,6,1,8,0.73
2013-10-8,66.0,52.1,38.8,51.8,44.7,38.0,99,78,56,30.23,30.07,7,2,11,0.01
2013-10-9,69.6,52.6,40.5,46.2,42.3,36.2,97,72,31,30.27,30.15,7,1,10,0.00
2013-10-10,66.3,50.5,36.3,55.2,46.0,35.0,99,86,64,30.18,30.07,3,0,5,0.00
2013-10-11,73.0,58.8,44.3,56.8,50.2,44.0,100,77,40,30.08,29.97,6,1,10,0.00
2013-10-12,67.8,61.2,56.5,60.3,57.8,55.4,97,89,75,30.09,29.98,2,0,6,0.00
2013-10-13,71.1,61.2,55.4,63.5,59.2,54.3,100,93,74,30.21,30.09,4,0,6,0.02
2013-10-14,70.8,61.2,53.2,60.1,56.8,51.9,99,86,67,30.24,30.13,4,1,7,0.00
2013-10-15,70.9,57.5,46.4,57.5,51.9,46.1,100,84,56,30.17,30.03,3,0,9,0.00
2013-10-16,66.0,56.8,46.5,57.1,53.2,45.7,99,88,72,30.06,29.96,4,1,7,0.00
2013-10-17,62.7,57.8,51.0,62.3,57.0,47.9,100,97,89,29.97,29.81,6,1,9,0.14
2013-10-18,62.3,49.5,35.9,47.8,43.9,35.4,100,83,54,30.08,29.96,2,0,4,0.00
2013-10-19,59.6,51.3,45.4,52.1,47.4,40.9,99,87,66,30.00,29.86,10,2,18,0.00
2013-10-20,61.3,44.0,29.8,40.8,35.3,28.5,98,75,31,30.13,30.00,2,0,4,0.00
2013-10-21,64.3,45.7,32.1,47.8,38.6,31.3,99,80,44,30.17,30.02,9,1,14,0.01
2013-10-22,59.0,49.9,40.9,51.2,45.7,39.0,98,86,67,30.04,29.83,9,2,11,0.02
2013-10-23,49.6,43.9,35.6,48.0,39.3,30.1,99,84,63,30.06,29.75,15,5,22,0.09
2013-10-24,45.8,37.5,29.4,34.8,32.2,28.1,97,82,61,30.24,30.06,10,2,15,0.00
2013-10-25,39.1,34.4,25.4,33.5,28.2,21.8,92,78,62,30.45,30.24,5,1,11,0.00
2013-10-26,52.0,36.2,18.1,32.5,25.1,16.2,97,68,38,30.41,30.15,11,2,18,0.00
2013-10-27,61.2,47.8,32.4,42.7,37.0,28.4,92,68,47,30.17,30.07,9,2,14,0.00
2013-10-28,58.7,51.7,43.2,54.6,49.8,40.8,98,93,84,30.27,30.15,2,0,4,0.04
2013-10-29,65.8,56.1,51.6,55.3,51.8,49.7,100,87,60,30.34,30.23,4,0,6,0.01
2013-10-30,67.4,57.5,51.6,58.1,54.3,49.7,100,89,69,30.26,30.15,8,1,13,0.31
2013-10-31,66.8,59.5,50.8,57.9,53.0,50.3,100,81,59,30.14,29.68,8,1,14,0.00